• en Suisse
  • Liste des pays
  • À 7 jours
  • Température de l'eau
  • Carte satellitaire
  • Carte météo
  • Widgets météo
  • user-avatar
    Se connecter

    Météo par heure à Djibouti

    Ce jour, 21 Février, Mercredi

    Heure Température Précipitation Vent Pression Humidité
    00:00 +27°C° 0 mm 2 m/s 756 mmHg 79%
    01:00 +27°C° 0 mm 2 m/s 756 mmHg 80%
    02:00 +27°C° 0 mm 2 m/s 756 mmHg 81%
    03:00 +27°C° 0 mm 2 m/s 756 mmHg 82%
    04:00 +27°C° 0 mm 2 m/s 756 mmHg 82%
    05:00 +26°C° 0 mm 2 m/s 756 mmHg 83%
    06:00 +26°C° 0 mm 2 m/s 756 mmHg 84%
    07:00 +27°C° 0 mm 2 m/s 757 mmHg 80%
    08:00 +28°C° 0 mm 3 m/s 757 mmHg 77%
    09:00 +28°C° 0 mm 3 m/s 757 mmHg 73%
    10:00 +29°C° 0 mm 3 m/s 757 mmHg 68%
    11:00 +30°C° 0 mm 4 m/s 757 mmHg 63%
    12:00 +32°C° 0 mm 4 m/s 756 mmHg 58%
    13:00 +33°C° 0 mm 5 m/s 756 mmHg 56%
    14:00 +33°C° 0 mm 5 m/s 755 mmHg 53%
    15:00 +33°C° 0 mm 5 m/s 755 mmHg 51%
    16:00 +32°C° 0 mm 5 m/s 755 mmHg 55%
    17:00 +30°C° 0 mm 4 m/s 755 mmHg 58%
    18:00 +30°C° 0 mm 4 m/s 755 mmHg 62%
    19:00 +29°C° 0 mm 4 m/s 755 mmHg 65%
    20:00 +28°C° 0 mm 3 m/s 756 mmHg 68%
    21:00 +28°C° 0 mm 3 m/s 756 mmHg 71%
    22:00 +28°C° 0 mm 3 m/s 756 mmHg 73%
    23:00 +27°C° 0 mm 3 m/s 756 mmHg 74%

    Demain, 22 Février, Jeudi

    Heure Température Précipitation Vent Pression Humidité
    00:00 +27°C° 0 mm 3 m/s 756 mmHg 76%
    01:00 +27°C° 0 mm 3 m/s 756 mmHg 78%
    02:00 +26°C° 0 mm 3 m/s 756 mmHg 79%
    03:00 +26°C° 0 mm 3 m/s 756 mmHg 80%
    04:00 +26°C° 0 mm 3 m/s 756 mmHg 81%
    05:00 +26°C° 0 mm 3 m/s 756 mmHg 81%
    06:00 +26°C° 0 mm 3 m/s 756 mmHg 81%
    07:00 +27°C° 0 mm 3 m/s 757 mmHg 77%
    08:00 +27°C° 0 mm 3 m/s 757 mmHg 73%
    09:00 +28°C° 0 mm 3 m/s 758 mmHg 68%
    10:00 +29°C° 0 mm 4 m/s 757 mmHg 62%
    11:00 +30°C° 0 mm 4 m/s 757 mmHg 56%
    12:00 +32°C° 0 mm 4 m/s 756 mmHg 50%
    13:00 +33°C° 0 mm 4 m/s 756 mmHg 48%
    14:00 +33°C° 0 mm 4 m/s 755 mmHg 46%
    15:00 +33°C° 0 mm 5 m/s 754 mmHg 45%
    16:00 +32°C° 0 mm 4 m/s 754 mmHg 48%
    17:00 +32°C° 0 mm 4 m/s 754 mmHg 51%
    18:00 +30°C° 0 mm 4 m/s 754 mmHg 54%
    19:00 +29°C° 0 mm 3 m/s 755 mmHg 58%
    20:00 +28°C° 0 mm 3 m/s 756 mmHg 61%
    21:00 +28°C° 0 mm 3 m/s 756 mmHg 65%
    22:00 +28°C° 0 mm 2 m/s 756 mmHg 68%
    23:00 +27°C° 0 mm 2 m/s 756 mmHg 70%

    Après-demain, 23 Février, Vendredi

    Heure Température Précipitation Vent Pression Humidité
    00:00 +27°C° 0 mm 2 m/s 756 mmHg 72%
    01:00 +27°C° 0 mm 2 m/s 756 mmHg 74%
    02:00 +26°C° 0 mm 2 m/s 755 mmHg 75%
    03:00 +26°C° 0 mm 2 m/s 755 mmHg 77%
    04:00 +26°C° 0 mm 2 m/s 755 mmHg 78%
    05:00 +26°C° 0 mm 2 m/s 755 mmHg 79%
    06:00 +25°C° 0 mm 2 m/s 755 mmHg 80%
    07:00 +26°C° 0 mm 2 m/s 756 mmHg 76%
    08:00 +27°C° 0 mm 3 m/s 756 mmHg 72%
    09:00 +28°C° 0 mm 3 m/s 757 mmHg 68%
    10:00 +29°C° 0 mm 3 m/s 757 mmHg 62%
    11:00 +30°C° 0 mm 4 m/s 756 mmHg 57%
    12:00 +33°C° 0 mm 4 m/s 756 mmHg 51%
    13:00 +33°C° 0 mm 4 m/s 755 mmHg 50%
    14:00 +33°C° 0 mm 4 m/s 754 mmHg 49%
    15:00 +33°C° 0 mm 5 m/s 753 mmHg 48%
    16:00 +33°C° 0 mm 4 m/s 753 mmHg 51%
    17:00 +32°C° 0 mm 4 m/s 754 mmHg 54%
    18:00 +30°C° 0 mm 4 m/s 754 mmHg 58%
    19:00 +29°C° 0 mm 3 m/s 754 mmHg 61%
    20:00 +29°C° 0 mm 3 m/s 755 mmHg 64%
    21:00 +28°C° 0 mm 3 m/s 756 mmHg 67%
    22:00 +28°C° 0 mm 3 m/s 756 mmHg 69%
    23:00 +27°C° 0 mm 3 m/s 755 mmHg 72%

    24 Février, Samedi

    Heure Température Précipitation Vent Pression Humidité
    00:00 +27°C° 0 mm 3 m/s 755 mmHg 75%
    01:00 +26°C° 0 mm 3 m/s 755 mmHg 77%
    02:00 +26°C° 0 mm 3 m/s 754 mmHg 80%
    03:00 +26°C° 0 mm 2 m/s 754 mmHg 82%
    04:00 +26°C° 0 mm 2 m/s 755 mmHg 83%
    05:00 +26°C° 0 mm 2 m/s 755 mmHg 84%
    06:00 +26°C° 0 mm 2 m/s 756 mmHg 84%
    07:00 +27°C° 0 mm 3 m/s 756 mmHg 80%
    08:00 +27°C° 0 mm 3 m/s 757 mmHg 75%
    09:00 +28°C° 0 mm 3 m/s 757 mmHg 70%
    10:00 +29°C° 0 mm 4 m/s 757 mmHg 65%
    11:00 +32°C° 0 mm 4 m/s 756 mmHg 61%
    12:00 +33°C° 0 mm 5 m/s 755 mmHg 56%
    13:00 +33°C° 0 mm 5 m/s 755 mmHg 55%
    14:00 +33°C° 0 mm 5 m/s 754 mmHg 55%
    15:00 +33°C° 0 mm 5 m/s 753 mmHg 55%
    16:00 +33°C° 0 mm 4 m/s 753 mmHg 58%
    17:00 +32°C° 0 mm 4 m/s 753 mmHg 62%
    18:00 +30°C° 0 mm 4 m/s 754 mmHg 65%
    19:00 +29°C° 0 mm 3 m/s 754 mmHg 68%
    20:00 +29°C° 0 mm 3 m/s 755 mmHg 71%
    21:00 +28°C° 0 mm 3 m/s 755 mmHg 73%
    22:00 +28°C° 0 mm 3 m/s 755 mmHg 76%
    23:00 +28°C° 0 mm 3 m/s 755 mmHg 78%

    25 Février, Dimanche

    Heure Température Précipitation Vent Pression Humidité
    00:00 +27°C° 0 mm 3 m/s 755 mmHg 80%
    01:00 +27°C° 0 mm 3 m/s 754 mmHg 81%
    02:00 +27°C° 0 mm 3 m/s 754 mmHg 82%
    03:00 +27°C° 0 mm 3 m/s 754 mmHg 83%
    04:00 +27°C° 0 mm 3 m/s 754 mmHg 84%
    05:00 +27°C° 0 mm 3 m/s 755 mmHg 84%
    06:00 +27°C° 0 mm 3 m/s 755 mmHg 85%
    07:00 +27°C° 0 mm 3 m/s 755 mmHg 82%
    08:00 +28°C° 0 mm 3 m/s 756 mmHg 79%
    09:00 +28°C° 0 mm 4 m/s 757 mmHg 77%
    10:00 +29°C° 0 mm 4 m/s 756 mmHg 74%
    11:00 +30°C° 0 mm 4 m/s 755 mmHg 71%
    12:00 +30°C° 0 mm 4 m/s 755 mmHg 69%
    13:00 +30°C° 0 mm 5 m/s 754 mmHg 68%
    14:00 +32°C° 0 mm 5 m/s 754 mmHg 67%
    15:00 +32°C° 0 mm 5 m/s 753 mmHg 66%
    16:00 +30°C° 0 mm 4 m/s 753 mmHg 69%
    17:00 +30°C° 0 mm 4 m/s 754 mmHg 72%
    18:00 +29°C° 0 mm 4 m/s 754 mmHg 75%
    19:00 +29°C° 0 mm 4 m/s 754 mmHg 78%
    20:00 +29°C° 0 mm 3 m/s 755 mmHg 80%
    21:00 +28°C° 0 mm 3 m/s 756 mmHg 82%
    22:00 +28°C° 0 mm 3 m/s 755 mmHg 83%
    23:00 +28°C° 0 mm 3 m/s 755 mmHg 84%

    26 Février, Lundi

    Heure Température Précipitation Vent Pression Humidité
    00:00 +28°C° 0 mm 3 m/s 755 mmHg 86%
    01:00 +28°C° 0 mm 3 m/s 755 mmHg 86%
    02:00 +27°C° 0 mm 3 m/s 754 mmHg 86%
    03:00 +27°C° 0 mm 2 m/s 754 mmHg 86%
    04:00 +27°C° 0 mm 2 m/s 754 mmHg 87%
    05:00 +27°C° 0 mm 2 m/s 755 mmHg 87%
    06:00 +27°C° 0 mm 2 m/s 755 mmHg 88%
    07:00 +27°C° 0 mm 3 m/s 756 mmHg 85%
    08:00 +28°C° 0 mm 3 m/s 756 mmHg 82%
    09:00 +28°C° 0 mm 3 m/s 756 mmHg 79%
    10:00 +29°C° 0 mm 4 m/s 756 mmHg 76%
    11:00 +29°C° 0 mm 4 m/s 756 mmHg 74%
    12:00 +30°C° 0 mm 4 m/s 755 mmHg 71%
    13:00 +30°C° 0 mm 5 m/s 754 mmHg 70%
    14:00 +32°C° 0 mm 5 m/s 754 mmHg 69%
    15:00 +32°C° 0 mm 5 m/s 753 mmHg 67%
    16:00 +30°C° 0 mm 4 m/s 754 mmHg 70%
    17:00 +30°C° 0 mm 4 m/s 754 mmHg 73%
    18:00 +29°C° 0 mm 4 m/s 754 mmHg 76%
    19:00 +29°C° 0 mm 4 m/s 755 mmHg 78%
    20:00 +29°C° 0 mm 4 m/s 755 mmHg 80%
    21:00 +28°C° 0 mm 3 m/s 756 mmHg 83%
    22:00 +28°C° 0 mm 3 m/s 756 mmHg 84%
    23:00 +28°C° 0 mm 3 m/s 755 mmHg 85%
    Voir plus